Akri, Greece

7:32 AM EET on December 08, 2016 (GMT +0200)
Filippos

Weather History for LGKZ - October, 2013

Change the Weather History Date:

Tuesday, October 8, 2013

  Actual Average Record
Temperature  
Mean Temperature 58 °F -  
Max Temperature 64 °F - - ()
Min Temperature 51 °F - - ()
Degree Days  
Heating Degree Days 8    
Growing Degree Days 8 (Base 50)    
Moisture  
Dew Point 47 °F    
Average Humidity 72    
Maximum Humidity 88    
Minimum Humidity 49    
Precipitation  
Precipitation 0.00 in - - ()
Sea Level Pressure  
Sea Level Pressure 30.34 in    
Wind  
Wind Speed 1 mph ()    
Max Wind Speed 7 mph    
Max Gust Speed -    
Visibility 5.7 miles    
Events Rain    
T = Trace of Precipitation, MM = Missing Value Source: Averaged Metar Reports

Daily Weather History Graph

Daily Weather History Graph

Search for Another Location

Airport or City:

Trip Planner

Search our weather history database for the weather conditions in past years. The results will help you decide how hot, cold, wet, or windy it might be!

Date:

Astronomy

Oct. 08, 2013 Rise Set
Actual Time 7:36 AM EEST 7:03 PM EEST
Civil Twilight 7:08 AM EEST 7:30 PM EEST
Nautical Twilight 6:37 AM EEST 8:02 PM EEST
Astronomical Twilight 6:05 AM EEST 8:33 PM EEST
Moon 11:10 AM EEST 9:23 PM EEST
Length of Visible Light 12h 22m
Length of Day
11h 27m
Waxing Crescent, 13% of the Moon is Illuminated
Oct 8
Waxing Crescent
Oct 12
First Quarter
Oct 19
Full
Oct 27
Last Quarter
Nov 3
New

Hourly Weather History & Observations

Time (EEST) Temp. Dew Point Humidity Pressure Visibility Wind Dir Wind Speed Gust Speed Precip Events Conditions
4:20 AM 53.6 °F 44.6 °F 72% 30.36 in - Calm Calm - N/A   Unknown
4:50 AM 51.8 °F 44.6 °F 76% 30.33 in - Calm Calm - N/A   Unknown
5:20 AM 51.8 °F 44.6 °F 76% 30.33 in - Calm Calm - N/A   Unknown
5:50 AM 51.8 °F 44.6 °F 76% 30.33 in - Calm Calm - N/A   Unknown
6:50 AM 51.8 °F 46.4 °F 82% 30.33 in - Variable 1.2 mph - N/A Rain Light Rain
7:20 AM 51.8 °F 46.4 °F 82% 30.36 in - Variable 1.2 mph - N/A Rain Light Rain
7:50 AM 51.8 °F 48.2 °F 88% 30.36 in 4.3 mi Calm Calm - N/A   Drizzle
8:50 AM 51.8 °F 48.2 °F 88% 30.36 in 4.3 mi Calm Calm - N/A   Drizzle
9:50 AM 53.6 °F 48.2 °F 82% 30.39 in 5.0 mi Calm Calm - N/A   Overcast
10:50 AM 57.2 °F 48.2 °F 72% 30.39 in 5.0 mi Calm Calm - N/A   Mostly Cloudy
11:50 AM 59.0 °F 46.4 °F 63% 30.39 in 5.0 mi Calm Calm - N/A   Mostly Cloudy
12:50 PM 62.6 °F 44.6 °F 52% 30.36 in 6.2 mi Calm Calm - N/A   Mostly Cloudy
1:50 PM 62.6 °F 44.6 °F 52% 30.36 in 6.2 mi Calm Calm - N/A   Scattered Clouds
2:50 PM 64.4 °F 44.6 °F 49% 30.33 in 6.2 mi South 5.8 mph - N/A   Scattered Clouds
3:50 PM 64.4 °F 44.6 °F 49% 30.30 in 6.2 mi SE 6.9 mph - N/A   Mostly Cloudy
4:50 PM 62.6 °F 46.4 °F 55% 30.30 in 6.2 mi ESE 6.9 mph - N/A   Mostly Cloudy
5:50 PM 60.8 °F 46.4 °F 59% 30.30 in 6.2 mi ESE 6.9 mph - N/A   Mostly Cloudy
6:50 PM 59.0 °F 46.4 °F 63% 30.30 in 6.2 mi Calm Calm - N/A   Mostly Cloudy
7:50 PM 59.0 °F 48.2 °F 67% 30.33 in 6.2 mi Calm Calm - N/A   Mostly Cloudy
8:50 PM 57.2 °F 50.0 °F 77% 30.33 in 6.2 mi Calm Calm - N/A   Mostly Cloudy
9:20 PM 57.2 °F 50.0 °F 77% 30.33 in - Variable 3.5 mph - N/A   Unknown
9:50 PM 55.4 °F 50.0 °F 82% 30.33 in - Variable 2.3 mph - N/A   Unknown
10:20 PM 57.2 °F 50.0 °F 77% 30.33 in - Variable 2.3 mph - N/A   Unknown
10:50 PM 55.4 °F 50.0 °F 82% 30.33 in - Variable 1.2 mph - N/A   Unknown
11:20 PM 55.4 °F 50.0 °F 82% 30.33 in - Variable 1.2 mph - N/A   Unknown
11:50 PM 55.4 °F 51.8 °F 88% 30.33 in - Variable 2.3 mph - N/A Rain Light Rain